DW8673 Jerrabomberra AU current weather conditions

sailwx.info

Wind from 135

Air temperature 7.2° C
Dewpoint -1.7° C

Last reported at 2015-Mar-29 16:43 UTC.
Time now 2015-Mar-29 17:18 UTC

Location: S 35°23' E 149°12'.
View on Google Maps.

See reports from other nearby stations

  
Tides and Currents Weather Stations Pressure Air Temp Water Temp Dewpoint Dewpoint Depression Visibility Wind Speed Wind Dir Waves Ship Positions
date/time (UTC)wind fromknots sea level pressurealtimeterstation pressurevisibilityair tempwater tempwave heightnotes
2015-Mar-29 16:43 135 7.2
2015-Mar-29 16:33 135 7.2
2015-Mar-29 16:13 116 7.2
2015-Mar-29 16:03 090 7.2
2015-Mar-29 15:43 090 7.8
2015-Mar-29 15:33 045 7.8
2015-Mar-29 15:13 202 8.3
2015-Mar-29 15:03 202 8.3
2015-Mar-29 14:43 045 8.9
2015-Mar-29 14:33 273 8.9
2015-Mar-29 14:13 112 9.4
2015-Mar-29 14:03 112 10.0
2015-Mar-29 13:43 342 10.6
2015-Mar-29 13:13 112 10.6
2015-Mar-29 13:03 022 10.6
2015-Mar-29 12:43 112 11.1
2015-Mar-29 12:33 268 11.1
2015-Mar-29 12:13 248 11.7
2015-Mar-29 12:03 128 11.7
2015-Mar-29 11:43 106 12.8
2015-Mar-29 11:33 090 13.3
2015-Mar-29 11:13 292 13.3
2015-Mar-29 11:03 281 13.9
2015-Mar-29 10:43 090 15.0
2015-Mar-29 10:33 090 15.6
2015-Mar-29 10:13 090 0 gusting 1 15.6
2015-Mar-29 10:03 071 0 gusting 1 15.6
2015-Mar-29 09:43 089 0 gusting 1 15.6
2015-Mar-29 09:33 090 16.1
2015-Mar-29 09:13 085 0 gusting 2 16.7
2015-Mar-29 09:03 022 17.2
2015-Mar-29 08:43 337 1 gusting 2 17.8
2015-Mar-29 08:33 347 0 gusting 2 18.3
2015-Mar-29 08:13 129 18.9
2015-Mar-29 08:03 113 19.4
2015-Mar-29 07:43 114 20.6
2015-Mar-29 07:33 021 0 gusting 4 21.1
2015-Mar-29 07:13 327 1 gusting 5 22.2
2015-Mar-29 07:03 347 1 gusting 6 22.8
2015-Mar-29 06:43 343 2 gusting 5 22.2
2015-Mar-29 06:33 002 2 gusting 4 22.2
2015-Mar-29 06:13 346 1 gusting 4 23.3
2015-Mar-29 06:03 351 1 gusting 6 24.4
2015-Mar-29 05:43 339 2 gusting 5 22.8
2015-Mar-29 05:33 311 2 gusting 5 23.3
2015-Mar-29 05:13 357 1 gusting 5 22.8
2015-Mar-29 05:03 304 2 gusting 4 23.3
2015-Mar-29 04:43 23.9
2015-Mar-29 04:33 347 2 gusting 4 24.4
2015-Mar-29 04:13 356 1 gusting 5 24.4
2015-Mar-29 04:03 328 1 gusting 5 24.4
2015-Mar-29 03:43 024 1 gusting 4 24.4
2015-Mar-29 03:33 330 2 gusting 5 25.0
2015-Mar-29 03:13 045 1 gusting 5 25.0
2015-Mar-29 03:03 107 0 gusting 4 25.0
2015-Mar-29 02:43 166 0 gusting 2 26.1
2015-Mar-29 02:33 110 1 gusting 4 27.2
2015-Mar-29 02:13 084 0 gusting 2 24.4
2015-Mar-29 02:03 098 0 gusting 4 24.4
2015-Mar-29 01:43 262 1 gusting 4 25.0
2015-Mar-29 01:33 323 1 gusting 4 23.3
2015-Mar-29 01:13 281 1 gusting 4 23.3
2015-Mar-29 01:03 299 1 gusting 4 22.2
2015-Mar-29 00:43 217 0 gusting 2 21.7
2015-Mar-29 00:33 159 1 gusting 2 20.6
2015-Mar-29 00:13 201 1 gusting 4 19.4
2015-Mar-29 00:03 255 1 gusting 2 18.9
2015-Mar-28 23:43 300 1 gusting 2 17.2
2015-Mar-28 23:33 270 2 gusting 4 16.7
2015-Mar-28 23:13 246 1 gusting 1 14.4
2015-Mar-28 23:03 242 13.3
2015-Mar-28 22:43 265 0 gusting 1 12.2
2015-Mar-28 22:33 005 0 gusting 2 12.2
2015-Mar-28 22:13 285 0 gusting 1 11.1
2015-Mar-28 22:03 158 0 gusting 1 11.1
2015-Mar-28 21:43 302 10.6
2015-Mar-28 21:33 10.0
2015-Mar-28 21:13 045 8.3
2015-Mar-28 21:03 045 7.8
2015-Mar-28 20:43 045 6.7
2015-Mar-28 20:33 112 5.6
2015-Mar-28 20:13 112 5.6
2015-Mar-28 20:03 112 5.6
2015-Mar-28 19:43 112 6.1
2015-Mar-28 19:33 112 6.1
2015-Mar-28 19:13 112 6.1
2015-Mar-28 19:03 112 6.1
2015-Mar-28 18:43 112 6.1
2015-Mar-28 18:33 112 6.1
2015-Mar-28 18:13 068 6.7
2015-Mar-28 18:03 068 6.7
2015-Mar-28 17:43 068 6.7
2015-Mar-28 17:33 068 7.2
2015-Mar-28 17:13 7.2
2015-Mar-28 17:03 180 7.8
2015-Mar-28 16:43 270 7.8
2015-Mar-28 16:33 270 7.8
2015-Mar-28 16:13 270 0 gusting 0 7.8
2015-Mar-28 16:03 135 7.8
2015-Mar-28 15:43 135 7.8
2015-Mar-28 15:33 135 7.8
2015-Mar-28 15:13 212 8.3
2015-Mar-28 15:03 190 8.3
2015-Mar-28 14:43 202 8.3
2015-Mar-28 14:33 202 8.9
2015-Mar-28 14:13 136 9.4
2015-Mar-28 14:03 9.4
2015-Mar-28 13:43 250 10.0
2015-Mar-28 13:33 225 10.6
2015-Mar-28 13:13 135 11.1
2015-Mar-28 13:03 154 11.7
2015-Mar-28 12:43 342 0 gusting 1 12.8
2015-Mar-28 12:33 198 0 gusting 4 12.8
2015-Mar-28 12:13 086 0 gusting 2 13.3
2015-Mar-28 12:03 098 0 gusting 4 13.3
2015-Mar-28 11:43 094 1 gusting 2 13.9
2015-Mar-28 11:33 092 1 gusting 5 13.9
2015-Mar-28 11:13 093 1 gusting 4 14.4
2015-Mar-28 11:03 075 1 gusting 4 14.4
2015-Mar-28 10:43 083 2 gusting 5 14.4
2015-Mar-28 10:33 104 1 gusting 4 15.0
2015-Mar-28 10:13 067 1 gusting 5 15.0
2015-Mar-28 10:03 100 2 gusting 4 15.6
2015-Mar-28 09:43 112 1 gusting 2 15.6
2015-Mar-28 09:33 103 1 gusting 2 16.1
2015-Mar-28 09:13 098 0 gusting 1 15.0
2015-Mar-28 09:03 068 15.6
2015-Mar-28 08:43 090 16.7
2015-Mar-28 08:33 068 17.2
2015-Mar-28 08:13 090 18.9
2015-Mar-28 08:03 20.0
2015-Mar-28 07:43 041 22.2
2015-Mar-28 07:33 339 0 gusting 1 22.2
2015-Mar-28 07:13 356 0 gusting 1 23.3
2015-Mar-28 07:03 312 0 gusting 2 23.9
2015-Mar-28 06:43 313 1 gusting 2 25.0
2015-Mar-28 06:33 317 25.0
2015-Mar-28 06:13 312 1 gusting 2 26.1
2015-Mar-28 06:03 250 1 gusting 4 26.1
2015-Mar-28 05:43 017 26.7
2015-Mar-28 05:33 292 1 gusting 5 26.7
2015-Mar-28 05:13 287 1 gusting 5 26.7
2015-Mar-28 05:03 331 1 gusting 4 26.1
2015-Mar-28 04:43 091 1 gusting 5 26.1
2015-Mar-28 04:33 042 1 gusting 5 26.1
2015-Mar-28 04:13 333 1 gusting 4 26.1
2015-Mar-28 04:03 290 1 gusting 5 26.1
2015-Mar-28 03:43 318 1 gusting 4 25.6
2015-Mar-28 03:33 295 2 gusting 5 25.6
2015-Mar-28 03:13 323 2 gusting 5 25.6
2015-Mar-28 03:03 221 1 gusting 6 25.6
2015-Mar-28 02:43 075 1 gusting 4 24.4
2015-Mar-28 02:33 090 1 gusting 6 24.4
2015-Mar-28 02:13 023 2 gusting 5 24.4
2015-Mar-28 02:03 337 0 gusting 6 24.4
2015-Mar-28 01:43 147 2 gusting 5 23.9
2015-Mar-28 01:33 184 0 gusting 4 23.9
2015-Mar-28 01:13 219 1 gusting 4 22.2
2015-Mar-28 01:03 275 0 gusting 5 22.2
2015-Mar-28 00:43 253 1 gusting 2 22.2
2015-Mar-28 00:33 352 1 gusting 5 21.7
2015-Mar-28 00:13 313 1 gusting 2 21.1
2015-Mar-28 00:03 043 1 gusting 2 21.1
2015-Mar-27 23:43 297 1 gusting 2 19.4
2015-Mar-27 23:33 194 1 gusting 2 19.4
2015-Mar-27 23:13 261 1 gusting 2 17.8
2015-Mar-27 23:03 201 0 gusting 1 16.7
2015-Mar-27 22:43 329 1 gusting 1 14.4
2015-Mar-27 22:33 312 0 gusting 2 13.9
2015-Mar-27 22:13 004 12.2
2015-Mar-27 22:03 285 1 gusting 1 11.7
2015-Mar-27 21:43 234 0 gusting 1 10.0
2015-Mar-27 21:33 248 0 gusting 0 8.3
2015-Mar-27 21:13 161 0 gusting 0 4.4
2015-Mar-27 21:03 090 3.9
2015-Mar-27 20:43 090 3.3
2015-Mar-27 20:33 090 3.3
2015-Mar-27 20:13 112 3.3
2015-Mar-27 20:03 112 3.3
2015-Mar-27 19:43 112 3.9
2015-Mar-27 19:33 130 3.9
2015-Mar-27 19:13 292 3.9
2015-Mar-27 19:03 090 3.9
2015-Mar-27 18:43 171 4.4
2015-Mar-27 18:33 202 4.4
2015-Mar-27 18:13 112 4.4
2015-Mar-27 18:03 112 4.4
2015-Mar-27 17:43 112 4.4
2015-Mar-27 17:33 112 4.4
2015-Mar-27 17:13 104 5.0
2015-Mar-27 17:03 315 5.0